VINASAT-2

Last updated on Sun Jun 21 2026 00:03:05 GMT+0000 (Coordinated Universal Time)

1 38332U 12023B 26170.91911681 -.00000334 00000+0 00000+0 0 9998 2 38332 0.0136 359.2227 0002197 92.1545 279.4824 1.00271085 46680
UTC large
Height (km)
Speed (km/s)
/
Latitude / Longitude
Inclination (degrees)
Orbital Period (minutes)
Azimuth
Elevation
Range (km)
Doppler Factor

Next 0 passes for location: London (51.5072 / 0.1276)

No passes found over London.
VINASAT-2